CMB weather

Bandaranaike International Colombo Airport
Colombo, Western Province, Sri Lanka

Public forecast

Using degrees Celsius for public forecast. Weather courtesy of forecast.io.

METAR (pilot weather report)

Retrieved 2017/05/23 20:10 UTC (5 minutes ago):

VCBI 232010Z 22010KT 9000 SCT017 29/25 Q1007 NOSIG

TAF (pilot weather forecast)

Forecast is more than 12 hours old.

Retrieved 2017/03/24 06:00 UTC (2 months ago):

TAF VCBI 240340Z 2406/2512 27010KT 9999 NSC TX32/2408Z TN25/2500Z BECMG 2413/2415 12006KT TEMPO 2423/2503 6000